Showing default

OPS 9321 (IDSCS 8), 2645

Orbit data source: Space-Track

OPS 9321 (IDSCS 8), 2645 is a payload satellite owned by USAF SSD (US) in GEO that was launched on Wed, 18 Jan 1967 UTC via a TITAN IIIC launch vehicle from the Air Force Eastern Test Range (AFETR). Payload-class satellites include a variety of spacecraft equipped with specific instruments for various scientific and technological missions. These include communications satellites like Starlink; space stations such as the ISS; scientific satellites like the Hubble; Earth observation satellites from companies like Planet Labs, Umbra, and HawkEye 360; GPS; miniature CubeSats for education and research; and military/defense satellites.

Not visible in the next 10 days
Identifier
2645, 1967-003A
Orbit
GEO
Country
Flag of USUS
Related business
Manufacturer
Philco-Ford WDL
Mission
Non-operational spacecraft
Bus & Motor
IDCSP, Unknown motor
Mass
45 kg wet, 45 kg dry
Launch date (UTC)
1967-01-18 (59 years ago)
Launch vehicle
TITAN IIIC
Launch site
Air Force Eastern Test Range (AFETR)
Object type
Payload
Rocket body
Debris
Shape & HBR
Unknown
Radar Cross Section
Medium (>0.1 m² and <1 m²)

Expand to show TLE details & history
Last TLE update: 6 days ago

TLE from 6 days ago
0 OPS 9321 (IDSCS 8)
1 02645U 67003A   26120.41298494 -.00000118  00000-0  00000-0 0  9996
2 02645   8.2581  45.0023 0033412 122.5120  97.0226  1.08317625233932
Epoch: 2026-04-30T09:54Z
TLE epoch observation values (Epoch: 2026-04-30T09:54:41.898Z)
Latitude
-5.29729°
Longitude
-102.40221°
Altitude
33,688.341 km
Speed
3.154 km/s
True Right ascension
17h 38m 31s
True Declination
-5° 17' 30"
Sunlit
Object was in daylight at epoch
Visualization orbit readout
Latitude
Unknown
Longitude
Unknown
Altitude
Unknown
Speed
Unknown
Apparent Right ascension
Unknown
Apparent Declination
Unknown
Sunlit
N/A
Visualization observer readout
Local Sidereal Time
19:04:01
Azimuth
Unknown
Elevation
Unknown
Doppler factor
Unknown
Orbital elements
Apogee altitude
33,806.763 km
Perigee altitude
33,539.125 km
Semi-major axis
40,051.081 km
Eccentricity
0.00334
Inclination
8.2581°
RAAN
45.0023°
Arg. of periapsis
122.512°
True anomaly
97.4024°
Mean anomaly
97.0226°
Eccentric anomaly
97.21252°
Mean motion
0.27078 °/min
Orbital period
1,329.48 mins
BSTAR
0
Loading maneuver chart data...
Computing Atmospheric mass density...
Loading historical data...
Loading historical data...
Loading historical data...
Loading historical data...
Loading historical data...
Loading historical data...
Loading historical data...

Documentation

Showing up to 5 results
|